Regional Weather Roundup
Issued by NWS

Home | Current Version | Previous Version | Graphics & Text | Print | Product List | Glossary On
Versions: 1 2 3 4 5 6 7 8 9 10 11 12 13 14 15 16 17 18 19 20 21 22 23 24 25 26 27 28 29 30 31 32 33 34 35 36 37 38 39 40 41 42 43 44 45 46 47 48 49 50
000
ASUS43 KOAX 092302
RWRNE

WEATHER ROUNDUP FOR NEBRASKA
NATIONAL WEATHER SERVICE OMAHA NE
500 PM CST TUE FEB 09 2016

NOTES: SATELLITE DATA IS BEING USED TO AUGMENT CLOUD COVER ABOVE
       12000 FEET.
       "FAIR" INDICATES FEW OR NO CLOUDS BELOW 12,000 FEET WITH NO
       SIGNIFICANT WEATHER AND/OR OBSTRUCTIONS TO VISIBILITY.

  * THESE STATIONS DO NOT REPORT WEATHER SUCH AS RAIN...SNOW OR FOG.

NEZ001>004-019>022-054>056-100000-
NEBRASKA PANHANDLE

CITY           SKY/WX    TMP DP  RH WIND       PRES   REMARKS
SCOTTSBLUFF    SUNNY     51  33  50 NW10      30.20F
ALLIANCE       PTSUNNY   39  32  76 W17       30.15F WCI  30
CHADRON        SUNNY     52  32  46 W13       30.14F
KIMBALL        MOSUNNY   43  32  65 W14       30.23F
SIDNEY         MOSUNNY   43  32  65 NW10      30.21F
$$

NEZ057>060-069>072-079>082-100000-
SOUTHWEST NEBRASKA

CITY           SKY/WX    TMP DP  RH WIND       PRES   REMARKS
NORTH PLATTE   CLOUDY    36  21  54 S6        30.19F WCI  31
IMPERIAL       CLOUDY    43  31  62 NW7       30.20F
LEXINGTON      CLOUDY    32  21  64 S5        30.22F WCI  27
MCCOOK         PTSUNNY   36  23  59 SW6       30.22F WCI  31
$$

NEZ005>010-023>029-035>040-094-100000-
NORTH CENTRAL NEBRASKA

CITY           SKY/WX    TMP DP  RH WIND       PRES   REMARKS
VALENTINE      CLOUDY    40  25  55 W9        30.14F WCI  34
AINSWORTH      MOCLDY    36  21  55 SW6       30.15F WCI  31
BROKEN BOW     CLOUDY    31  19  61 SW3       30.20F
ORD            MOCLDY    28  14  55 SW10      30.22F WCI  19
$$

NEZ041-046>049-061>064-073>077-083>087-100000-
SOUTH CENTRAL NEBRASKA

CITY           SKY/WX    TMP DP  RH WIND       PRES   REMARKS
GRAND ISLAND   CLOUDY    27  13  55 W7        30.28R WCI  19
AURORA         CLOUDY    26  15  62 W7        30.27S WCI  18
HASTINGS       CLOUDY    27  12  53 W6        30.27R WCI  20
HEBRON         CLEAR     28  13  53 NW8       30.30R WCI  20
YORK           CLEAR     27  16  63 NW12      30.27S WCI  16
$$

NEZ011>018-030>034-042>045-100000-
NORTHEAST NEBRASKA

CITY           SKY/WX    TMP DP  RH WIND       PRES   REMARKS
NORFOLK        CLOUDY    29  13  51 NW13      30.22S WCI  19
ALBION         CLOUDY    27  12  53 W3        30.23F
BLAIR          CLEAR     23  12  64 NW9       30.24R WCI  13
COLUMBUS *     CLOUDY    28   9  43 W9        30.26R WCI  20
FREMONT        CLEAR     24  13  62 NW9       30.26S WCI  15
TEKAMAH        CLEAR     43  13  29 NW12      30.26S
$$

NEZ050>053-065>068-078-088>093-100000-
SOUTHEAST NEBRASKA

CITY           SKY/WX    TMP DP  RH WIND       PRES   REMARKS
LINCOLN        CLOUDY    28  13  53 NW10      30.28R WCI  19
OMAHA EPPLEY   PTCLDY    23  11  60 NW13      30.26R WCI  11
BEATRICE       CLOUDY    28  13  54 NW15      30.28R WCI  16
FALLS CITY     CLEAR     27   7  42 NW12      30.25S WCI  17
NEBRASKA CITY  CLEAR     24  10  53 NW10G17   30.26R WCI  14
$$

NEZ044-045-051>053-067-100000-
OMAHA AREA

CITY           SKY/WX    TMP DP  RH WIND       PRES   REMARKS
OMAHA EPPLEY   PTCLDY    23  11  60 NW13      30.26R WCI  11
BLAIR          CLEAR     23  12  64 NW9       30.24R WCI  13
FREMONT        CLEAR     24  13  62 NW9       30.26S WCI  15
OFFUTT AFB     CLEAR     24   9  53 NW16G24   30.26R WCI  11
WAHOO          FAIR      24  14  68 N5        30.27R WCI  18
$$



USA.gov is the U.S. government's official web portal to all federal, state and local government web resources and services.